#timestamp,LO_Frequency,Hit,StdDev 
1511132415.2,286046994.9,N
1511132435.0,286046995.6,N
1511132436.0,286046995.6,N
1511132455.8,286046993.7,N
1511132475.6,286046993.4,N
1511132495.5,286046993.7,N
1511132515.3,286046995.4,N
1511132535.1,286046999.6,N
1511132555.9,286046999.4,N
1511132575.7,286046995.0,N
1511132595.6,286046997.7,N
1511132615.4,286047002.8,N
1511132635.2,286047003.1,N
1511132655.1,286047004.4,N
1511132656.0,286047004.4,N
1511132675.8,286047000.0,N
1511132695.7,286047000.5,N
1511132715.5,286046996.5,N
1511132735.3,286046997.5,N
1511132755.2,286046995.9,N
1511132775.0,286046993.9,N
1511132775.9,286046993.9,N
1511132795.8,286046991.9,N
1511132815.6,286046993.4,N
1511132835.4,286046999.0,N
1511132855.3,286047002.8,N
1511132875.1,286047000.2,N
1511132895.9,286046998.3,N
1511132915.7,286046996.8,N
1511132935.5,286046999.4,N
1511132955.4,286046999.9,N
1511132975.2,286047002.1,N
1511132995.0,286047001.7,N
1511132996.0,286047001.7,N
1511133015.8,286047003.8,N
1511133035.6,286047006.1,N
1511133055.5,286047007.1,N
1511133075.3,286047007.2,N
1511133095.1,286047005.4,N
1511133115.9,286047005.0,N
1511133135.7,286047005.9,N
1511133155.6,286047002.4,N
1511133175.4,286047000.5,N
1511133195.2,286047002.8,N
1511133215.1,286046998.5,N
1511133216.0,286046998.5,N
1511133235.8,286046999.8,N
1511133255.7,286047005.8,N
1511133275.5,286047005.8,N
1511133295.3,286047006.4,N
1511133315.2,286047007.5,N
1511133335.0,286047002.9,N
1511133335.9,286047002.9,N
1511133355.7,286047004.1,N
1511133375.6,286047005.7,N
1511133395.4,286047005.5,N
1511133415.3,286047005.9,N
1511133435.1,286047003.1,N
1511133455.8,286047003.7,N
1511133475.7,286047001.9,N
1511133495.5,286047002.4,N
1511133515.4,286047000.8,N
1511133535.2,286046996.5,N
1511133555.0,286047002.3,N
1511133555.9,286047002.3,N
1511133575.8,286047004.4,N
1511133595.6,286047001.9,N
1511133615.5,286047002.6,N
1511133635.3,286047000.6,N
1511133655.1,286046998.4,N
1511133675.9,286046998.8,N
1511133695.7,286046997.0,N
1511133715.5,286046999.2,N
1511133735.4,286046998.8,N
1511133755.2,286046999.6,N
1511133775.1,286046999.3,N
1511133776.0,286046999.3,N
1511133795.8,286046999.0,N
1511133815.6,286046997.6,N
1511133835.5,286046997.3,N
1511133855.3,286046998.0,N
1511133875.2,286046997.7,N
1511133895.9,286046996.6,N
1511133915.7,286046999.1,N
1511133935.6,286046998.1,N
1511133955.4,286047000.1,N
1511133975.2,286046998.1,N
1511133995.1,286046996.8,N
1511133996.0,286046996.8,N
1511134015.8,286046995.6,N
1511134035.7,286046997.9,N
1511134055.5,286046997.7,N
1511134075.3,286046995.0,N
1511134095.2,286046996.8,N
1511134115.0,286046999.6,N
1511134115.9,286046999.6,N
1511134135.8,286046996.7,N
1511134155.6,286046996.7,N
1511134175.4,286046999.6,N
1511134195.4,286046996.5,N
1511134215.2,286046997.9,N
1511134235.1,286046997.9,N
1511134236.0,286046997.9,N
1511134255.8,286046994.9,Y
1511134275.7,286046997.1,P
1511134295.2,286046997.8,P
1511134315.1,286046998.4,P
1511134316.0,286046998.4,Y
1511134335.8,286047002.7,P
1511134355.6,286047001.4,N
1511134375.5,286047003.5,N
1511134395.3,286047003.1,N
1511134415.2,286047003.8,N
1511134435.9,286047003.4,N
1511134455.7,286047005.9,Y
1511134475.6,286047004.2,P
1511134495.4,286047001.7,N
1511134515.3,286047002.4,N
1511134535.1,286047000.2,N
1511134536.0,286047000.2,N
1511134555.8,286046999.8,N
1511134575.7,286047002.9,N
1511134595.5,286047005.8,Y
1511134615.4,286047001.3,P
1511134635.2,286047002.5,P
1511134655.0,286046999.9,N
1511134655.9,286046999.9,N
1511134675.8,286047000.3,N
1511134695.6,286046998.1,N
1511134715.4,286047001.1,N
1511134735.3,286046999.3,N
1511134755.1,286046997.6,N
1511134775.9,286046997.6,N
1511134795.7,286046996.2,N
1511134815.5,286046993.3,Y
1511134835.4,286046993.8,P
1511134855.2,286046993.7,N
1511134875.1,286046996.0,N
1511134876.0,286046996.0,N
1511134895.8,286046997.7,N
1511134915.6,286046995.0,N
1511134935.5,286046997.8,N
1511134955.3,286047000.9,N
1511134975.1,286046998.4,N
1511134995.9,286047001.1,N
1511135015.7,286046999.4,N
1511135035.6,286046997.7,N
1511135055.4,286046995.7,N
1511135075.2,286047001.1,N
1511135095.1,286047000.7,N
1511135096.0,286047000.7,N
1511135115.8,286047001.1,N
1511135135.7,286046998.3,N
1511135155.5,286046996.5,N
1511135175.3,286047001.5,N
1511135195.2,286047006.3,N
1511135215.0,286047004.9,N
1511135215.9,286047004.9,N
1511135235.7,286047007.6,N
1511135255.6,286047006.9,N
1511135275.4,286047004.2,N
1511135295.3,286047004.4,N
1511135315.1,286047003.2,N
1511135335.8,286047004.3,N
1511135355.7,286047004.3,N
1511135375.5,286047006.0,N
1511135395.4,286047007.5,N
1511135415.2,286047001.5,N
1511135435.0,286047000.6,N
1511135435.9,286047000.6,N
1511135455.8,286046998.9,N
1511135475.6,286046997.3,N
1511135495.5,286046995.3,N
1511135515.3,286046995.8,N
1511135535.1,286046993.4,N
1511135555.9,286046999.4,N
1511135575.7,286046999.3,N
1511135595.6,286046998.3,N
1511135615.4,286046998.5,N
1511135635.2,286047000.8,N
1511135655.1,286046999.4,N
1511135656.0,286046999.4,N
1511135675.8,286046998.7,N
1511135695.7,286047000.4,N
1511135715.5,286046998.3,N
1511135735.3,286046999.4,N
1511135755.2,286046999.3,N
1511135775.0,286046999.1,N
1511135775.9,286046999.1,N
1511135795.8,286046998.1,N
1511135815.6,286047000.6,N
1511135835.5,286046996.7,N
1511135855.3,286046996.8,N
1511135875.1,286046999.0,N
1511135895.9,286047001.4,N
1511135915.7,286046999.7,N
1511135935.6,286047000.0,N
1511135955.4,286047001.3,N
1511135975.2,286047003.6,N
1511135995.1,286047002.5,N
1511135996.0,286047002.5,N
